Location: Champignolles
(47.0543°N, 4.5663°E)
Time: 06:54:54
(UTC+00:00)

Cosmos 923 Rocket - Pass Details

Date: 20 April 2021
Orbit: 759 x 785 km, 74.0° (Epoch: 13 May)

Event Time Altitude Azimuth Distance (km) Brightness Sun altitude
Rises 23:58:39 0° 348° (NNW) 3,231 8.3 -31.3°
Reaches altitude 10° 00:01:59 10° 10° (N) 2,303 7.4 -31.2°
Maximum altitude 00:05:09 16° 47° (NE) 1,922 6.5 -31.2°
Drops below altitude 10° 00:08:18 10° 85° (E) 2,302 6.6 -31.1°
Enters shadow 00:08:56 - 90° (E) 2,453 6.7 -31.1°
